Regional Weather Roundup
Issued by NWS

Home | Current Version | Previous Version | Text Only | Print | Product List | Glossary On
Versions: 1 2 3 4 5 6 7 8 9 10 11 12 13 14 15 16 17 18 19 20 21 22 23 24 25 26 27 28 29 30 31 32 33 34 35 36 37 38 39 40 41 42 43 44 45 46 47 48 49 50
000
ASUS43 KMKX 291421
RWRWI

WISCONSIN REGIONAL WEATHER ROUNDUP
NATIONAL WEATHER SERVICE MILWAUKEE/SULLIVAN WI
900 AM CDT WED MAR 29 2017

NOTE: "FAIR" INDICATES FEW OR NO CLOUDS BELOW 12,000 FEET WITH NO
SIGNIFICANT WEATHER AND/OR OBSTRUCTIONS TO VISIBILITY.

WIZ001-002-006>008-014>016-023>028-291500-
NORTHWEST WISCONSIN

CITY           SKY/WX    TMP DP  RH WIND       PRES   REMARKS
SUPERIOR ARPT  CLOUDY    35  32  90 E13       30.34R WCI  26
ASHLAND        CLOUDY    34  31  88 N6        30.33R WCI  29
HAYWARD        CLOUDY    36  30  79 NE6       30.28S WCI  31
SIREN          CLOUDY    35  30  82 CALM      30.27S
CUMBERLAND     CLOUDY    39  30  70 SE7       30.26R WCI  34
RICE LAKE      CLOUDY    41  31  67 CALM      30.28S
CHETEK         CLOUDY    39  32  73 E3        30.27S
LADYSMITH      CLOUDY    40  29  65 E7        30.29S
EAU CLAIRE     PTSUNNY   42  29  59 SE8       30.26R
MENOMONIE      CLOUDY    41  33  73 E5        30.26R
NEW RICHMOND   CLOUDY    41  32  69 E7        30.25R
OSCEOLA        CLOUDY    39  33  79 CALM      30.28R
$$

WIZ003>005-009-010-017-018-291500-
NORTH CENTRAL WISCONSIN

CITY           SKY/WX    TMP DP  RH WIND       PRES   REMARKS
MANITOWISH WTR CLOUDY    35  27  73 E6        30.29S WCI  30
ARBOR VITAE    CLOUDY    37  27  69 E5        30.28F WCI  33
WOODRUFF       CLOUDY    37  27  69 E5        30.28F WCI  33
RHINELANDER    CLOUDY    37  28  70 E9        30.29F WCI  30
EAGLE RIVER    CLOUDY    36  26  66 E6        30.30S WCI  32
LAND O LAKES   CLOUDY    35  28  74 E6        30.32S WCI  30
PHILLIPS       PTSUNNY   38  29  69 SE3       30.27S
TOMAHAWK       CLOUDY    36  29  76 E3        30.29S
MEDFORD        CLOUDY    37  27  66 E8        30.27R WCI  31
MERRILL        CLOUDY    36  29  76 E6        30.30R WCI  31
$$

WIZ029-030-035-036-043>047-291500-
CENTRAL WISCONSIN

CITY           SKY/WX    TMP DP  RH WIND       PRES   REMARKS
WAUSAU         CLOUDY    37  28  70 E8        30.28S WCI  31
MOSINEE        PTSUNNY   37  28  70 E8        30.30R WCI  31
MARSHFIELD     CLOUDY    37  28  70 E10       30.26S WCI  30
STEVENS POINT  CLOUDY    36  27  72 E8        30.30S WCI  29
WAUPACA        CLOUDY    39  32  76 NE3       30.31S
WAUTOMA        CLOUDY    39  32  76 NE8       30.29S WCI  33
WISC RAPIDS    CLOUDY    41  30  65 E12       30.29S
CAMP DOUGLAS   CLOUDY    37  34  87 E5        30.26F WCI  34
$$

WIZ011>013-019>022-031-037>040-048>050-291500-
NORTHEAST WISCONSIN

CITY           SKY/WX    TMP DP  RH WIND       PRES   REMARKS
ANTIGO         CLOUDY    36  28  71 E8        30.30S WCI  30
SHAWANO        CLOUDY    37  32  82 NE6       30.34R WCI  32
OCONTO         CLOUDY    36  32  84 NE6       30.34S WCI  31
STURGEON BAY   MOSUNNY   37  32  82 NE9       30.35R WCI  30
GREEN BAY      MOSUNNY   37  35  92 NE12      30.33R WCI  29
MANITOWOC      CLOUDY    40  36  86 NE6       30.33R
APPLETON       PTSUNNY   37  28  70 NE10      30.29S WCI  30
CLINTONVILLE   CLOUDY    36  30  80 NE8       30.32S WCI  29
OSHKOSH        MOSUNNY   40  32  73 NE8       30.29S WCI  34
$$

WIZ032>034-041-042-053>061-291500-
SOUTHWEST WISCONSIN

CITY           SKY/WX    TMP DP  RH WIND       PRES   REMARKS
LA CROSSE      CLOUDY    44  34  67 E6        30.26R
SPARTA         CLOUDY    39  33  79 E7        30.27S WCI  34
VIROQUA        CLOUDY    39  35  85 CALM      30.24R
BOSCOBEL       CLOUDY    41  37  86 NE5       30.26R
PRAIRIE DU CHI CLOUDY    41  35  81 E6        30.24R
PLATTEVILLE    CLOUDY    40  39  95 E13       30.23R WCI  33
$$

WIZ056-057-062-063-064-067-068-291500-
SOUTH CENTRAL WISCONSIN

CITY           SKY/WX    TMP DP  RH WIND       PRES   REMARKS
REEDSBURG      CLOUDY    36  34  92 E7        30.26S WCI  30
BARABOO/DELLS  CLOUDY    36  33  88 E8        30.26S WCI  30
LONE ROCK      CLOUDY    39  36  89 SE5       30.27R FOG
MINERAL POINT  CLOUDY    41  37  87 E10       30.23R
MADISON        CLOUDY    37  35  92 E6        30.25F WCI  32
MIDDLETON      CLOUDY    37  37  97 E5        30.26S WCI  34
WATERTOWN      CLOUDY    37  37 100 E7        30.25F WCI  32
MONROE         CLOUDY    36  36 100 NE6       30.23R FOG     WCI  31
JANESVILLE     PTSUNNY   37  37 100 NE7       30.23F WCI  32
$$

WIZ051-052-058>065-066-070>072-291500-
SOUTHEAST WISCONSIN

CITY           SKY/WX    TMP DP  RH WIND       PRES   REMARKS
MILWAUKEE      CLOUDY    39  37  92 NE5       30.28R
WAUKESHA       PTSUNNY   36  36 100 NE6       30.29R WCI  31
MILWAUKEE/TIMM CLOUDY    36  34  93 NE3       30.29R
RACINE         CLOUDY    36  34  92 N7        30.29S WCI  30
KENOSHA        CLOUDY    36  34  92 NE6       30.27R WCI  31
FOND DU LAC    MOSUNNY   41  34  76 NE9       30.28F
SHEBOYGAN      MOSUNNY   41  37  86 NE9       30.30S
WEST BEND      CLOUDY    36  36 100 NE5       30.28S FOG     WCI  32
JUNEAU         CLOUDY    37  35  92 NE6       30.27F WCI  32
$$

LSZ147-162-291500-
LAKE SUPERIOR

STATION/POSITION TIME  TEMP    WIND        PRES    WAVE
                       AIR SEA DIR/SP/G            HT/PER
                 (UTC) (F)     (DEG/KT/KT) (MB)    (FT/S)
DEVILS ISLAND    1400   34      70/ 16/ 18 1028.8R
PORT WING        1330   35      50/ 10/ 11 1027.4R
SAXON HARBOR     1340   31      CALM  /  2 1026.8R
$$

LMZ867-665-643>646-291500-
LAKE MICHIGAN

STATION/POSITION TIME  TEMP    WIND        PRES    WAVE
                       AIR SEA DIR/SP/G            HT/PER
                 (UTC) (F)     (DEG/KT/KT) (MB)    (FT/S)
CHAMBERS ISLAND  1340   33      20/ 10/ 13 1027.4S
NORTHPORT PIER   1340   35      50/  6/ 11 1028.1R
SISTER BAY       1236   37      30/  5/  8   N/A
KEWAUNEE LAKESHO 1354   36      40/ 10/ 14 1026.6R
SHEBOYGAN LAKESH 1400   37     350/ 10/ 11 1026.7S
PORT WASHINGTON  1330   40      40/  6/  8 1026.4S
MILWAUKEE LAKESH 1400   37      20/  7/  7   N/A
KENOSHA   LAKESH 1400   34      30/  9/ 11 1025.1
$$

TC  - TEMPERATURE IN CELSIUS
VSB - VISIBILITY IN STATUTE MILES
WCI - WIND CHILL INDEX
HX  - HEAT INDEX




USA.gov is the U.S. government's official web portal to all federal, state and local government web resources and services.